Location: Gunnison Valley Observatory
(38.5087°N, 106.9386°W)
Time: 17:16:05
(UTC-07:00)

Amateur Radio Satellites - All Passes

Search period start: 22 February 2017 16:46
Search period end: 23 February 2017 16:46
Location: Gunnison Valley Observatory, 38.5087°N, 106.9386°W

Satellite Date Start Highest point End Downlink Frequencies (MHz)
Time Altitude Azimuth
BEESAT 2 22 Feb 16:48:19 16:52:21 74° 241° (WSW) 16:56:22 435.950
XW-2F 22 Feb 16:49:22 16:52:23 22° 70° (ENE) 16:55:25 145.980 - 146.000
KAITUO 1B 22 Feb 16:50:14 16:52:58 19° 69° (ENE) 16:55:44 145.475/437.950
XW-2D 22 Feb 16:51:51 16:55:02 25° 71° (ENE) 16:58:15 145.860 - 145.880
XW-2B 22 Feb 16:56:41 17:00:00 28° 71° (ENE) 17:03:19 145.730 - 145.750
XW-2C 22 Feb 17:04:56 17:08:26 36° 73° (ENE) 17:12:00 145.795 - 145.815
PCSat 22 Feb 17:07:37 17:12:59 67° 300° (WNW) 17:18:25 145.827
Tancredo 1 22 Feb 17:11:18 17:12:17 11° 232° (SW) 17:13:16 437.200
CUBESAT XI-V 22 Feb 17:12:24 17:16:59 71° 285° (WNW) 17:21:32 437.345
KKS-1 22 Feb 17:15:43 17:19:51 38° 289° (WNW) 17:23:59 437.445
LilacSat-2 22 Feb 17:18:05 17:21:52 56° 75° (ENE) 17:25:41 437.200
NUDT-PHONESAT 22 Feb 17:27:56 17:31:36 57° 76° (ENE) 17:35:20 437.300
CUTE-I 22 Feb 17:32:44 17:38:03 76° 75° (ENE) 17:43:24 437.470
RS-15 22 Feb 17:44:31 17:56:20 76° 116° (ESE) 18:08:38 29.354- 29.394
HO-68 22 Feb 17:47:58 17:54:00 31° 62° (ENE) 18:00:02 435.675
M-CUBED/EXP-1 PRIME 22 Feb 17:52:44 17:56:24 60° 290° (WNW) 18:00:22 437.505
XW-2A 22 Feb 17:57:43 18:00:19 21° 70° (ENE) 18:02:55 145.665 - 145.685
STARS 22 Feb 17:58:46 18:02:36 29° 291° (WNW) 18:06:26 437.465
DOVE 4 22 Feb 18:03:32 18:07:26 39° 262° (W) 18:11:20 437.250
CUTE 1.7 + AOD 2 22 Feb 18:15:56 18:19:32 27° 70° (ENE) 18:23:09 437.475
XW-2F 22 Feb 18:23:22 18:26:25 22° 265° (W) 18:29:30 145.980 - 146.000
KAITUO 1B 22 Feb 18:23:36 18:26:49 26° 264° (W) 18:30:04 145.475/437.950
XW-2D 22 Feb 18:26:20 18:29:11 20° 266° (W) 18:32:04 145.860 - 145.880
XW-2B 22 Feb 18:31:31 18:34:11 18° 266° (W) 18:36:53 145.730 - 145.750
XW-2C 22 Feb 18:40:42 18:42:46 14° 267° (W) 18:44:51 145.795 - 145.815
UWE-3 22 Feb 18:46:47 18:49:40 17° 66° (ENE) 18:52:36 435.000/436.395/437.385
PCSat 22 Feb 18:55:46 18:57:27 11° 320° (NW) 18:59:08 145.827
ZACube-1 22 Feb 19:14:23 19:17:38 20° 67° (ENE) 19:20:56 437.345
CUTE-I 22 Feb 19:16:41 19:18:38 12° 270° (W) 19:20:35 437.470
AAUSAT CUBESAT 2 22 Feb 19:17:05 19:21:00 42° 73° (ENE) 19:24:57 437.432
SEEDS 22 Feb 19:18:21 19:22:36 86° 261° (W) 19:26:51 437.485
XW-2A 22 Feb 19:30:36 19:33:00 18° 265° (W) 19:35:25 145.665 - 145.685
HO-68 22 Feb 19:34:27 19:41:22 51° 259° (W) 19:48:20 435.675
CUBEBUG 2 22 Feb 19:37:28 19:41:49 82° 256° (WSW) 19:46:22 437.445
STRAND 1 22 Feb 19:37:53 19:43:04 87° 101° (ESE) 19:48:13 437.568
CUTE 1.7 + AOD 2 22 Feb 19:51:52 19:55:19 23° 265° (W) 19:58:46 437.475
RS-15 22 Feb 19:59:08 20:10:01 37° 321° (NW) 20:21:13 29.354- 29.394
AO-73 22 Feb 20:03:19 20:07:40 63° 75° (ENE) 20:12:09 145.935
Oscar 11 22 Feb 20:13:59 20:18:19 74° 76° (ENE) 20:22:41 .
UWE-3 22 Feb 20:21:34 20:25:44 42° 262° (W) 20:30:03 435.000/436.395/437.385
ZACube-1 22 Feb 20:49:36 20:53:37 35° 263° (W) 20:57:46 437.345
AAUSAT CUBESAT 2 22 Feb 20:54:25 20:56:39 14° 268° (W) 20:58:53 437.432
DELFI C3 22 Feb 21:16:12 21:20:09 66° 259° (WSW) 21:24:06 145.870
STRAND 1 22 Feb 21:19:56 21:21:28 11° 300° (WNW) 21:22:59 437.568
YUBILEINY 22 Feb 21:20:53 21:29:20 51° 77° (ENE) 21:37:42 435.215
PRISM 22 Feb 21:21:09 21:25:05 46° 100° (E) 21:29:00 437.425
SO-50 22 Feb 21:41:28 21:44:29 17° 110° (ESE) 21:47:29 436.795
AO-73 22 Feb 21:43:17 21:44:19 11° 271° (W) 21:45:22 145.935
ESTCUBE 1 22 Feb 21:46:51 21:49:55 18° 66° (ENE) 21:52:59 437.505/2401.250
UNISAT 6 22 Feb 22:13:03 22:17:47 75° 102° (ESE) 22:22:27 437.425
TIGRISAT 22 Feb 22:14:17 22:19:00 72° 102° (ESE) 22:23:38 435.000
RS-15 22 Feb 22:19:44 22:27:47 19° 354° (N) 22:35:52 29.354- 29.394
VELOX 1 22 Feb 22:25:25 22:27:57 15° 65° (ENE) 22:30:28 145.980
AIST 2D 22 Feb 22:32:23 22:34:03 13° 92° (E) 22:35:42 435.315
O/OREOS (USA 219) 22 Feb 22:32:40 22:36:34 30° 104° (ESE) 22:40:30 437.305
FO-29 22 Feb 22:44:30 22:52:11 67° 101° (E) 22:59:08 435.910
SPROUT 22 Feb 22:54:02 22:57:25 24° 69° (ENE) 23:00:50 437.525
PRISM 22 Feb 22:58:00 22:59:56 13° 295° (WNW) 23:01:54 437.425
YUBILEINY 22 Feb 23:18:18 23:25:43 33° 276° (W) 23:33:06 435.215
SO-50 22 Feb 23:19:59 23:24:33 50° 305° (NW) 23:29:04 436.795
ESTCUBE 1 22 Feb 23:22:08 23:26:23 40° 261° (W) 23:30:40 437.505/2401.250
50 SAT 22 Feb 23:32:41 23:36:08 55° 75° (ENE) 23:39:34 437.505
JUGNU 22 Feb 23:37:59 23:39:59 12° 178° (S) 23:41:59 437.505
DUCHIFAT 1 22 Feb 23:40:39 23:44:46 46° 99° (E) 23:48:52 145.980
EO-79 22 Feb 23:47:59 23:52:17 70° 102° (ESE) 23:56:32 145.935-145.965
UNISAT 6 22 Feb 23:52:20 23:53:49 11° 298° (WNW) 23:55:17 437.425
TIGRISAT 22 Feb 23:53:19 23:55:01 12° 298° (WNW) 23:56:45 435.000
VELOX 1 22 Feb 23:59:46 00:04:00 47° 261° (W) 00:08:14 145.980
DX 1 23 Feb 00:00:29 00:04:47 76° 76° (ENE) 00:09:07 434.975-435.025
AIST 2D 23 Feb 00:04:10 00:07:23 32° 287° (WNW) 00:10:35 435.315
POLYITAN 1 23 Feb 00:04:36 00:08:55 74° 284° (WNW) 00:13:11 437.675
NANOSAT C BR1 23 Feb 00:06:49 00:11:05 77° 286° (WNW) 00:15:21 145.865
QB50P2 23 Feb 00:07:30 00:11:45 63° 285° (WNW) 00:15:59 145.880/145.840
O/OREOS (USA 219) 23 Feb 00:12:23 00:15:58 23° 300° (WNW) 00:19:36 437.305
PCSat 23 Feb 00:15:51 00:17:55 12° 41° (NE) 00:19:58 145.827
UKube-1 23 Feb 00:18:15 00:22:34 86° 71° (ENE) 00:26:53 .
SPROUT 23 Feb 00:29:36 00:33:12 27° 264° (W) 00:36:50 437.525
FO-29 23 Feb 00:30:30 00:36:25 25° 300° (WNW) 00:42:02 435.910
RS-15 23 Feb 00:36:15 00:46:26 28° 30° (NNE) 00:56:21 29.354- 29.394
BUGSAT 1 23 Feb 00:49:04 00:53:19 82° 284° (WNW) 00:57:34 437.445
ITUPSAT 1 23 Feb 00:53:26 00:56:00 14° 63° (ENE) 00:58:34 437.325
BEESAT 23 Feb 01:01:15 01:04:23 18° 65° (ENE) 01:07:32 436.000
Oscar 19 23 Feb 01:15:41 01:20:37 47° 100° (E) 01:25:32 437.125/150
DUCHIFAT 1 23 Feb 01:17:42 01:20:02 15° 295° (WNW) 01:22:22 145.980
EO-79 23 Feb 01:26:56 01:27:25 10° 297° (WNW) 01:27:54 145.935-145.965
Gurwin Techsat 1B 23 Feb 01:38:35 01:43:39 43° 99° (E) 01:48:40 435.225
MOZHAYETS 4 23 Feb 01:46:30 01:49:27 17° 65° (ENE) 01:52:24
PCSat 23 Feb 01:56:51 02:02:18 71° 61° (ENE) 02:07:42 145.827
AO-7 23 Feb 01:59:54 02:02:35 12° 88° (E) 02:05:15 .
SRMSAT 23 Feb 02:20:05 02:22:21 12° 179° (S) 02:24:37 437.500
ITUPSAT 1 23 Feb 02:28:33 02:33:17 61° 259° (W) 02:38:04 437.325
BEESAT 23 Feb 02:37:09 02:41:45 48° 260° (W) 02:46:24 436.000
KKS-1 23 Feb 02:37:33 02:40:01 15° 64° (ENE) 02:42:29 437.445
RS-15 23 Feb 02:48:55 03:01:20 79° 58° (ENE) 03:13:08 29.354- 29.394
Oscar 19 23 Feb 02:55:55 02:59:34 20° 295° (WNW) 03:03:13 437.125/150
STARS 23 Feb 03:18:31 03:21:28 18° 66° (ENE) 03:24:25 437.465
Gurwin Techsat 1B 23 Feb 03:19:11 03:23:17 23° 295° (WNW) 03:27:24 435.225
MOZHAYETS 4 23 Feb 03:21:44 03:26:12 47° 261° (W) 03:30:42
ITAMSAT 1 23 Feb 03:22:28 03:27:43 74° 103° (ESE) 03:32:56 435.822/435.867
AO-85 23 Feb 03:25:54 03:27:12 11° 109° (ESE) 03:28:29 145.980
PCSat 23 Feb 03:42:18 03:45:01 14° 257° (WSW) 03:47:44 145.827
AO-7 23 Feb 03:48:15 03:56:35 74° 106° (ESE) 04:04:51 .
KKS-1 23 Feb 04:11:52 04:16:08 49° 260° (W) 04:20:27 437.445
CUBESAT XI-V 23 Feb 04:13:44 04:18:25 87° 254° (WSW) 04:23:06 437.345
M-CUBED/EXP-1 PRIME 23 Feb 04:38:06 04:41:24 56° 254° (WSW) 04:44:37 437.505
STARS 23 Feb 04:53:26 04:57:30 38° 261° (W) 05:01:36 437.465
AO-85 23 Feb 05:02:33 05:07:10 70° 302° (WNW) 05:11:26 145.980
RS-15 23 Feb 05:02:59 05:12:27 28° 259° (WSW) 05:21:38 29.354- 29.394
ITAMSAT 1 23 Feb 05:03:57 05:06:30 14° 299° (WNW) 05:09:04 435.822/435.867
STRAND 1 23 Feb 05:16:35 05:18:50 13° 61° (ENE) 05:21:04 437.568
AO-7 23 Feb 05:42:12 05:48:34 25° 304° (NW) 05:54:55 .
CUTE-I 23 Feb 05:51:32 05:56:25 34° 97° (E) 06:01:15 437.470
KAITUO 1B 23 Feb 05:55:57 05:59:20 31° 97° (E) 06:02:40 145.475/437.950
XW-2F 23 Feb 05:56:17 05:59:52 37° 98° (E) 06:03:23 145.980 - 146.000
XW-2D 23 Feb 05:59:16 06:02:57 44° 99° (E) 06:06:35 145.860 - 145.880
DOVE 4 23 Feb 06:02:17 06:06:53 56° 100° (E) 06:11:46 437.250
XW-2B 23 Feb 06:04:13 06:07:57 49° 100° (E) 06:11:38 145.730 - 145.750
BEESAT 3 23 Feb 06:06:00 06:09:19 27° 113° (ESE) 06:12:41 437.485
XW-2C 23 Feb 06:12:41 06:16:31 66° 101° (E) 06:20:17 145.795 - 145.815
SO-50 23 Feb 06:13:55 06:15:58 13° 41° (NE) 06:18:00 436.795
LilacSat-2 23 Feb 06:26:48 06:30:40 76° 282° (WNW) 06:34:28 437.200
NUDT-PHONESAT 23 Feb 06:33:41 06:37:27 80° 285° (WNW) 06:41:12 437.300
BEESAT 2 23 Feb 06:38:44 06:42:00 25° 113° (ESE) 06:45:20 435.950
STRAND 1 23 Feb 06:52:11 06:57:19 77° 258° (WSW) 07:02:29 437.568
XW-2A 23 Feb 06:53:09 06:56:08 26° 97° (E) 06:59:06 145.665 - 145.685
HO-68 23 Feb 07:03:45 07:10:10 35° 97° (E) 07:16:33 435.675
SEEDS 23 Feb 07:04:41 07:07:24 17° 93° (E) 07:10:07 437.485
CUBEBUG 2 23 Feb 07:30:04 07:34:00 25° 94° (E) 07:37:52 437.445
KAITUO 1B 23 Feb 07:30:44 07:33:05 16° 292° (WNW) 07:35:26 145.475/437.950
XW-2F 23 Feb 07:31:41 07:33:40 14° 293° (WNW) 07:35:36 145.980 - 146.000
CUTE-I 23 Feb 07:31:44 07:36:18 29° 293° (WNW) 07:40:52 437.470
XW-2D 23 Feb 07:35:13 07:36:43 12° 294° (WNW) 07:38:14 145.860 - 145.880
CUTE 1.7 + AOD 2 23 Feb 07:37:05 07:41:19 65° 101° (E) 07:45:28 437.475
ISS 23 Feb 07:39:19 07:41:41 18° 130° (SE) 07:44:03 437.550
XW-2B 23 Feb 07:40:40 07:41:40 11° 295° (WNW) 07:42:41 145.730 - 145.750
DOVE 4 23 Feb 07:41:31 07:44:10 15° 294° (WNW) 07:46:54 437.250
BEESAT 3 23 Feb 07:43:42 07:46:53 24° 310° (NW) 07:50:08 437.485
SO-50 23 Feb 07:52:31 07:57:03 86° 238° (WSW) 08:01:30 436.795
AO-73 23 Feb 07:54:19 07:56:45 14° 91° (E) 07:59:09 145.935
Oscar 11 23 Feb 08:04:02 08:06:31 15° 92° (E) 08:08:58 .
PRISM 23 Feb 08:09:11 08:12:40 27° 70° (ENE) 08:16:08 437.425
Tancredo 1 23 Feb 08:09:58 08:13:02 41° 136° (SE) 08:16:08 437.200
UWE-3 23 Feb 08:12:17 08:16:46 43° 98° (E) 08:21:09 435.000/436.395/437.385
BEESAT 2 23 Feb 08:16:22 08:19:42 26° 309° (NW) 08:23:05 435.950
XW-2A 23 Feb 08:26:35 08:28:40 15° 292° (WNW) 08:30:45 145.665 - 145.685
AAUSAT CUBESAT 2 23 Feb 08:35:36 08:39:43 82° 283° (WNW) 08:43:49 437.432
ZACube-1 23 Feb 08:38:53 08:43:20 49° 99° (E) 08:47:41 437.345
SEEDS 23 Feb 08:39:23 08:43:12 35° 288° (WNW) 08:46:59 437.485
O/OREOS (USA 219) 23 Feb 08:43:25 08:47:51 47° 65° (ENE) 08:52:17 437.305
HO-68 23 Feb 08:51:17 08:57:55 43° 294° (WNW) 09:04:30 435.675
FO-29 23 Feb 08:54:44 09:00:31 28° 62° (ENE) 09:06:44 435.910
DELFI C3 23 Feb 08:55:49 08:58:19 16° 93° (E) 09:00:49 145.870
CUBEBUG 2 23 Feb 09:06:22 09:10:34 32° 290° (WNW) 09:14:43 437.445
UNISAT 6 23 Feb 09:10:07 09:14:27 53° 74° (ENE) 09:18:55 437.425
TIGRISAT 23 Feb 09:11:12 09:15:30 50° 73° (ENE) 09:19:56 435.000
ISS 23 Feb 09:14:46 09:17:55 42° 326° (NNW) 09:21:05 437.550
CUTE 1.7 + AOD 2 23 Feb 09:15:47 09:16:33 10° 296° (WNW) 09:17:19 437.475
AO-73 23 Feb 09:28:51 09:33:15 50° 286° (WNW) 09:37:34 145.935
Oscar 11 23 Feb 09:38:44 09:42:50 43° 287° (WNW) 09:46:54 .
PRISM 23 Feb 09:44:48 09:47:55 21° 265° (W) 09:51:02 437.425
Tancredo 1 23 Feb 09:46:45 09:49:26 23° 332° (NNW) 09:52:07 437.200
UWE-3 23 Feb 09:49:39 09:52:49 18° 294° (WNW) 09:55:58 435.000/436.395/437.385
ZACube-1 23 Feb 10:16:27 10:19:09 16° 295° (WNW) 10:21:48 437.345
YUBILEINY 23 Feb 10:19:25 10:28:02 62° 91° (E) 10:36:39 435.215
O/OREOS (USA 219) 23 Feb 10:24:12 10:26:48 15° 261° (W) 10:29:25 437.305
DELFI C3 23 Feb 10:29:40 10:33:10 32° 288° (WNW) 10:36:40 145.870
DUCHIFAT 1 23 Feb 10:31:09 10:34:44 28° 70° (ENE) 10:38:20 145.980
AIST 2D 23 Feb 10:36:32 10:40:01 64° 76° (ENE) 10:43:34 435.315
FO-29 23 Feb 10:38:08 10:44:55 59° 261° (W) 10:52:28 435.910
EO-79 23 Feb 10:38:46 10:42:44 41° 72° (ENE) 10:46:43 145.935-145.965
UNISAT 6 23 Feb 10:49:21 10:51:29 13° 269° (W) 10:53:39 437.425
TIGRISAT 23 Feb 10:50:11 10:52:29 14° 269° (W) 10:54:50 435.000
ISS 23 Feb 10:53:50 10:55:04 12° 345° (NNW) 10:56:19 437.550
POLYITAN 1 23 Feb 10:55:17 10:59:29 66° 74° (ENE) 11:03:42 437.675
NANOSAT C BR1 23 Feb 10:57:01 11:01:09 63° 75° (ENE) 11:05:21 145.865
QB50P2 23 Feb 10:58:08 11:02:20 77° 76° (ENE) 11:06:36 145.880/145.840
ESTCUBE 1 23 Feb 11:15:43 11:20:01 44° 99° (E) 11:24:17 437.505/2401.250
BUGSAT 1 23 Feb 11:37:05 11:41:00 53° 74° (ENE) 11:45:00 437.445
VELOX 1 23 Feb 11:51:06 11:55:08 34° 98° (E) 11:59:08 145.980
DX 1 23 Feb 11:51:29 11:53:51 14° 93° (E) 11:56:14 434.975-435.025
DUCHIFAT 1 23 Feb 12:07:07 12:10:22 22° 265° (W) 12:13:40 145.980
UKube-1 23 Feb 12:07:57 12:10:32 16° 93° (E) 12:13:07 .
SPROUT 23 Feb 12:15:51 12:20:06 54° 100° (E) 12:24:18 437.525
EO-79 23 Feb 12:16:15 12:18:40 15° 268° (W) 12:21:06 145.935-145.965
YUBILEINY 23 Feb 12:18:08 12:25:22 28° 291° (WNW) 12:32:37 435.215
Oscar 19 23 Feb 12:30:56 12:36:00 60° 73° (ENE) 12:41:04 437.125/150
50 SAT 23 Feb 12:31:50 12:35:19 77° 102° (ESE) 12:38:46 437.505
ESTCUBE 1 23 Feb 12:53:39 12:56:27 17° 294° (WNW) 12:59:14 437.505/2401.250
AO-7 23 Feb 12:56:36 13:01:59 19° 52° (NE) 13:07:22 .
Gurwin Techsat 1B 23 Feb 12:58:07 13:03:19 59° 73° (ENE) 13:08:33 435.225
ITAMSAT 1 23 Feb 13:03:30 13:05:24 12° 60° (ENE) 13:07:19 435.822/435.867
Tancredo 1 23 Feb 13:03:46 13:04:14 10° 12° (NNE) 13:04:42 437.200
BUGSAT 1 23 Feb 13:15:56 13:16:41 10° 269° (W) 13:17:27 437.445
DX 1 23 Feb 13:26:06 13:30:15 45° 288° (WNW) 13:34:24 434.975-435.025
VELOX 1 23 Feb 13:28:05 13:31:20 20° 293° (WNW) 13:34:34 145.980
AO-85 23 Feb 13:35:13 13:39:06 59° 57° (ENE) 13:43:01 145.980
UKube-1 23 Feb 13:42:39 13:46:44 41° 288° (WNW) 13:50:47 .
SPROUT 23 Feb 13:53:34 13:55:31 13° 296° (WNW) 13:57:29 437.525
ISS 23 Feb 14:07:46 14:10:18 20° 26° (NNE) 14:12:49 437.550
Oscar 19 23 Feb 14:12:48 14:15:40 15° 268° (W) 14:18:33 437.125/150
BEESAT 3 23 Feb 14:24:49 14:26:50 13° 44° (NE) 14:28:50 437.485
ITUPSAT 1 23 Feb 14:30:33 14:35:01 38° 98° (E) 14:39:27 437.325
Tancredo 1 23 Feb 14:38:21 14:41:19 32° 32° (NNE) 14:44:15 437.200
BEESAT 23 Feb 14:38:29 14:43:07 47° 100° (E) 14:47:42 436.000
ITAMSAT 1 23 Feb 14:38:54 14:44:06 84° 256° (WSW) 14:49:21 435.822/435.867
Gurwin Techsat 1B 23 Feb 14:40:29 14:43:38 16° 268° (W) 14:46:47 435.225
AO-7 23 Feb 14:45:11 14:53:34 86° 71° (ENE) 15:01:59 .
BEESAT 2 23 Feb 14:58:26 15:00:21 13° 44° (NE) 15:02:15 435.950
MOZHAYETS 4 23 Feb 15:18:02 15:22:28 44° 99° (E) 15:26:48
ISS 23 Feb 15:43:45 15:46:58 55° 223° (SW) 15:50:10 437.550
BEESAT 3 23 Feb 16:00:52 16:04:51 63° 241° (WSW) 16:08:47 437.485
KKS-1 23 Feb 16:04:09 16:08:12 33° 98° (E) 16:12:14 437.445
ITUPSAT 1 23 Feb 16:08:57 16:12:36 22° 294° (WNW) 16:16:12 437.325
CUBESAT XI-V 23 Feb 16:12:14 16:16:02 25° 95° (E) 16:19:49 437.345
Tancredo 1 23 Feb 16:14:51 16:17:30 23° 228° (SW) 16:20:06 437.200
BEESAT 23 Feb 16:17:19 16:20:30 18° 295° (WNW) 16:23:39 436.000
BEESAT 2 23 Feb 16:34:32 16:38:34 68° 242° (WSW) 16:42:34 435.950
KAITUO 1B 23 Feb 16:36:06 16:37:53 13° 66° (ENE) 16:39:40 145.475/437.950
XW-2F 23 Feb 16:36:48 16:39:10 16° 68° (ENE) 16:41:34 145.980 - 146.000
XW-2D 23 Feb 16:39:50 16:42:31 18° 69° (ENE) 16:45:13 145.860 - 145.880
